Weather in Kalynivka

Ukraine / Zhytomyr Region     51°01′28″N   27°26′20″E
В апреле 2022 года жителям России запретили посещать сайт meteo.paraplan.net по решению Генеральной прокуратуры. Аудитория сайта уменьшилась в 10 раз. Владельцы сайта не видят смысла в поддержке погодного сервера в таких условиях. Сайт будет закрыт в октябре.
temp.,
°C
wind,
m/s
gust,
m/s
humid.,
%
clouds,
%
prec.,
mm/h
press.,
hPa
HPBL,
m
4 october, tue
tue400:00+7wnw71692100 2.3 10031605
03:00+7wnw71691100 5.5 10051564
06:00+7wnw71491100 2.3 10061296
09:00+8w71481100 2.6 10081265
12:00+9w61288100 0.6 10101300
15:00+11w61281100 1.3 10111458
18:00+10w6128281 0.6 10141057
21:00+9w6148786 0.7 1016767
5 october, wed
wed500:00+9w513908 0.1 1018664
03:00+8w413935 0.1 1020543
06:00+7w4119686 0.0 1021442
09:00+8w41190100 0.0 1023429
12:00+12w4771100 0.0 1023719
15:00+14w4664100 0.0 1023971
18:00+12wsw3775100 0.0 1023219
21:00+10sw31083100 0.0 1024244
6 october, thu
thu600:00+10sw31183100 0.0 1023293
03:00+9sw31184100 0.0 1023301
06:00+8sw398958 0.0 1023230
09:00+10wsw397954 0.0 1023266
12:00+15wsw476042 0.0 1023573
15:00+18w575618 0.0 1022885
18:00+15wsw39728 0.0 1023324
21:00+12w3128627 0.0 1025285
7 october, fri
fri700:00+12wnw4128872 0.0 1027395
03:00+11nw3118818 0.0 1028430
06:00+8nw39965 0.0 1030251
09:00+10nw26880 0.0 1031221
12:00+14nw34600 0.0 1030716
15:00+16nw22520 0.0 1029959
18:00+13n11680 0.0 102811
21:00+10se11790 0.0 102810
8 october, sat
sat800:00+9sse22855 0.0 102825
03:00+7sse24905 0.0 102670
06:00+6sse37911 0.0 1025120
09:00+8s39765 0.0 1024223
12:00+15s47545 0.0 1022603
15:00+17ssw45495 0.0 1020931
18:00+14ssw227280 0.0 101931
21:00+12sw238437 0.0 102055